Miscellaneous Local Product
Issued by NWS Hastings, NE

Home | Current Version | Previous Version | Graphics & Text | Print | Product List | Glossary On
Versions: 1 2 3 4 5 6 7 8 9 10 11 12 13 14 15 16 17 18 19 20 21 22 23 24 25 26 27 28 29 30 31 32 33 34 35 36 37 38 39 40 41 42 43 44 45 46 47 48 49 50
000
AXUS43 KGID 031402
MISGRI

GID CWA HOURLY WEATHER ROUNDUP
NATIONAL WEATHER SERVICE HASTINGS NE
900 AM CDT SUN MAY 03 2015

NOTE: "FAIR" INDICATES FEW OR NO CLOUDS BELOW 12,000 FEET WITH NO
SIGNIFICANT WEATHER AND/OR OBSTRUCTIONS TO VISIBILITY.

...SOUTH CENTRAL NEBRASKA...

CITY           SKY/WX    TMP DP  RH WIND       PRES   REMARKS
GRAND ISLAND   SUNNY     64  53  67 S14       29.75R
HASTINGS       FAIR      61  52  72 S7        29.77R
KEARNEY        SUNNY     66  46  48 SW8       29.76S
ORD            MOSUNNY   61  49  64 S5        29.72R
YORK           SUNNY     64  55  72 S14       29.74F
AURORA         SUNNY     65  56  72 S17G24    29.76R
LEXINGTON      MOSUNNY   61  50  67 W6        29.77R
HOLDREGE       MOSUNNY   69  45  42 SW10      29.78R
HEBRON         MOSUNNY   66  55  68 S14       29.76S

...NEBRASKA PANHANDLE...

CITY           SKY/WX    TMP DP  RH WIND       PRES   REMARKS
CHADRON        MOSUNNY   54  37  52 NE14      29.93R
ALLIANCE       PTSUNNY   56  42  59 N12       29.87R
SCOTTSBLUFF    SUNNY     59  43  55 NW9       29.88R
SIDNEY         SUNNY     60  43  53 NW13      29.89R

...WESTERN AND NORTH CENTRAL NEBRASKA...

CITY           SKY/WX    TMP DP  RH WIND       PRES   REMARKS
VALENTINE      MOSUNNY   59  43  55 N17       29.78R
AINSWORTH      MOSUNNY   61  46  57 N17       29.75S
ONEILL         MOSUNNY   61  53  77 SW7       29.72R
BROKEN BOW     PTSUNNY   71  45  39 VRB5      29.75R
IMPERIAL       SUNNY     65  44  46 W13       29.82R
NORTH PLATTE   MOSUNNY   63  51  65 W8        29.79R
MCCOOK         SUNNY     64  47  53 SW8       29.82R

...EASTERN NEBRASKA...

CITY           SKY/WX    TMP DP  RH WIND       PRES   REMARKS
NORFOLK        SUNNY     66  56  70 S10       29.72R
SO SIOUX CITY  MOSUNNY   67  54  63 SE6       29.75R
TEKAMAH        MOSUNNY   68  59  73 S17       29.74R
COLUMBUS       SUNNY     64  54  68 S12       29.75S
ALBION         SUNNY     61  54  77 S8        29.73R
OMAHA EPPLEY   PTSUNNY   67  58  72 S13       29.75S
OFFUTT AFB     SUNNY     67  58  72 S12       29.75S
MILLARD        SUNNY     66  57  72 S10       29.75S
LINCOLN        MOSUNNY   68  57  68 S16       29.75S
NEBRASKA CITY  MOSUNNY   67  54  62 S21       29.78S
BEATRICE       MOSUNNY   65  56  73 S14       29.77S
FALLS CITY     MOSUNNY   67  56  67 S15G24    29.80S

...NORTHERN KANSAS...

CITY           SKY/WX    TMP DP  RH WIND       PRES   REMARKS
GOODLAND       SUNNY     62  47  57 W8        29.87R
HILL CITY      SUNNY     67  50  54 W3        29.82R
NORTON         SUNNY     68  45  42 SW10      29.81S
PHILLIPSBURG   SUNNY     72  52  49 W9        29.79S
SMITH CENTER   SUNNY     66  48  52 W10       29.79R
BELOIT         SUNNY     64  52  63 W5        29.77S
HAYS           PTSUNNY   68  48  49 CALM      29.81S
RUSSELL        PTSUNNY   70  52  52 SW9       29.79S
CONCORDIA      MOSUNNY   68  54  60 SW13G22   29.78R
SALINA         MOSUNNY   69  56  62 S20       29.80S
TOPEKA         PTSUNNY   66  56  70 S14G22    29.85R



USA.gov is the U.S. government's official web portal to all federal, state and local government web resources and services.